Olbia, Italy

3:15 AM CEST on April 20, 2018 (GMT +0200)
Costa Smeralda

Weather History for LIEO - January, 2018

Change the Weather History Date:

Sunday, January 14, 2018

  Actual Average Record
Temperature  
Mean Temperature 46 °F -  
Max Temperature 57 °F 55 °F 64 °F (2007)
Min Temperature 36 °F 39 °F 30 °F (2003)
Degree Days  
Heating Degree Days 18    
Moisture  
Dew Point 43 °F    
Average Humidity 86    
Maximum Humidity 100    
Minimum Humidity 63    
Precipitation  
Precipitation 0.00 in 0.08 in - ()
Sea Level Pressure  
Sea Level Pressure 30.10 in    
Wind  
Wind Speed 3 mph ()    
Max Wind Speed 9 mph    
Max Gust Speed -    
Visibility 6.6 miles    
Events      
Averages and records for this station are not official NWS values.
T = Trace of Precipitation, MM = Missing Value Source: Averaged Metar Reports

Daily Weather History Graph

Daily Weather History Graph

Search for Another Location

Airport or City:

Trip Planner

Search our weather history database for the weather conditions in past years. The results will help you decide how hot, cold, wet, or windy it might be!

Date:

Astronomy

Jan. 14, 2018 Rise Set
Actual Time 7:44 AM CET 5:17 PM CET
Civil Twilight 7:14 AM CET 5:47 PM CET
Nautical Twilight 6:40 AM CET 6:21 PM CET
Astronomical Twilight 6:07 AM CET 6:54 PM CET
Moon 5:25 AM CET (1/14) 3:22 PM CET (1/14)
Length of Visible Light 10h 33m
Length of Day
9h 32m
Waning Crescent, 6% of the Moon is Illuminated
Jan 14
Waning Crescent
Jan 17
New
Jan 24
First Quarter
Jan 31
Full
Feb 7
Last Quarter

Hourly Weather History & Observations

Time (CET) Temp. Windchill Dew Point Humidity Pressure Visibility Wind Dir Wind Speed Gust Speed Precip Events Conditions
12:20 AM 37.4 °F - 35.6 °F 93% 30.12 in - Variable 2.3 mph - N/A   Clear
12:50 AM 39.2 °F 37.0 °F 37.4 °F 93% 30.12 in - West 3.5 mph - N/A   Clear
1:00 AM 39 °F - 38 °F 95% 30.13 in 9 mi West 3.5 mph - -  
1:20 AM 39.2 °F - 37.4 °F 93% 30.12 in - Variable 1.2 mph - N/A   Clear
1:50 AM 39.2 °F - 37.4 °F 93% 30.12 in - Variable 1.2 mph - N/A   Clear
2:20 AM 37.4 °F - 35.6 °F 93% 30.09 in - Calm Calm - N/A   Clear
2:50 AM 37.4 °F 34.9 °F 35.6 °F 93% 30.09 in - SSE 3.5 mph - N/A   Clear
3:20 AM 39.2 °F 35.9 °F 37.4 °F 93% 30.09 in - WSW 4.6 mph - N/A   Clear
4:00 AM 39 °F - 38 °F 93% 30.11 in - 1.2 mph - -  
4:50 AM 39.2 °F - 39.2 °F 100% 30.09 in - WSW 1.2 mph - N/A   Clear
5:20 AM 41.0 °F - 39.2 °F 93% 30.09 in 6.2 mi West 2.3 mph - N/A   Partly Cloudy
6:20 AM 41.0 °F - 39.2 °F 93% 30.09 in 6.2 mi Variable 2.3 mph - N/A   Partly Cloudy
7:00 AM 41 °F - 40 °F 95% 30.11 in 9 mi SSW 1.2 mph - -   Partly Cloudy
7:20 AM 41.0 °F - 41.0 °F 100% 30.09 in 6.2 mi Variable 2.3 mph - N/A   Scattered Clouds
7:50 AM 41.0 °F - 39.2 °F 93% 30.09 in 6.2 mi Variable 2.3 mph - N/A   Partly Cloudy
8:20 AM 41.0 °F - 39.2 °F 93% 30.09 in - Variable 2.3 mph - N/A   Clear
8:50 AM 41.0 °F - 39.2 °F 93% 30.09 in - Variable 1.2 mph - N/A   Clear
9:20 AM 42.8 °F 41.1 °F 42.8 °F 100% 30.12 in - West 3.5 mph - N/A   Clear
9:50 AM 46.4 °F 45.2 °F 44.6 °F 93% 30.12 in 6.2 mi WSW 3.5 mph - N/A   Partly Cloudy
10:20 AM 48.2 °F - 44.6 °F 87% 30.12 in 6.2 mi Variable 2.3 mph - N/A   Scattered Clouds
10:50 AM 48.2 °F - 44.6 °F 87% 30.12 in 6.2 mi Variable 2.3 mph - N/A   Scattered Clouds
11:20 AM 50.0 °F - 46.4 °F 87% 30.12 in 6.2 mi Variable 1.2 mph - N/A   Scattered Clouds
11:50 AM 53.6 °F - 44.6 °F 72% 30.09 in - Variable 2.3 mph - N/A   Clear
12:20 PM 55.4 °F - 44.6 °F 67% 30.09 in - Variable 1.2 mph - N/A   Clear
12:50 PM 55.4 °F - 44.6 °F 67% 30.09 in 6.2 mi North 4.6 mph - N/A   Scattered Clouds
1:00 PM 54 °F - 45 °F 63% 30.10 in 12 mi NE 5.8 mph - -   Partly Cloudy
1:20 PM 55.4 °F - 46.4 °F 72% 30.06 in 6.2 mi NE 9.2 mph - N/A   Scattered Clouds
1:50 PM 57.2 °F - 46.4 °F 67% 30.06 in 6.2 mi East 9.2 mph - N/A   Scattered Clouds
2:20 PM 55.4 °F - 46.4 °F 72% 30.06 in 6.2 mi East 9.2 mph - N/A   Scattered Clouds
2:50 PM 55.4 °F - 46.4 °F 72% 30.06 in 6.2 mi East 9.2 mph - N/A   Scattered Clouds
3:20 PM 57.2 °F - 46.4 °F 67% 30.06 in 6.2 mi East 8.1 mph - N/A   Scattered Clouds
3:50 PM 55.4 °F - 46.4 °F 72% 30.06 in 6.2 mi East 9.2 mph - N/A   Scattered Clouds
4:20 PM 55.4 °F - 46.4 °F 72% 30.06 in 6.2 mi East 9.2 mph - N/A   Scattered Clouds
4:50 PM 55.4 °F - 46.4 °F 72% 30.06 in 6.2 mi ESE 9.2 mph - N/A   Partly Cloudy
5:20 PM 53.6 °F - 46.4 °F 77% 30.06 in 6.2 mi ESE 5.8 mph - N/A   Scattered Clouds
5:50 PM 53.6 °F - 46.4 °F 77% 30.09 in 6.2 mi East 4.6 mph - N/A   Scattered Clouds
6:20 PM 53.6 °F - 46.4 °F 77% 30.09 in 6.2 mi Variable 1.2 mph - N/A   Scattered Clouds
6:50 PM 50.0 °F - 46.4 °F 87% 30.09 in 6.2 mi Variable 2.3 mph - N/A   Scattered Clouds
7:00 PM 50 °F - 45 °F 78% 30.12 in 9 mi NW 3.5 mph - -   Partly Cloudy
7:20 PM 50.0 °F - 46.4 °F 87% 30.09 in 6.2 mi NW 3.5 mph - N/A   Scattered Clouds
7:50 PM 50.0 °F - 46.4 °F 87% 30.12 in 6.2 mi SW 3.5 mph - N/A   Scattered Clouds
8:20 PM 50.0 °F - 46.4 °F 87% 30.12 in 6.2 mi SSW 1.2 mph - N/A   Scattered Clouds
8:50 PM 50.0 °F - 46.4 °F 87% 30.12 in 6.2 mi South 2.3 mph - N/A   Partly Cloudy
9:20 PM 48.2 °F - 46.4 °F 93% 30.12 in 6.2 mi WSW 4.6 mph - N/A   Scattered Clouds
9:50 PM 48.2 °F - 46.4 °F 93% 30.12 in 6.2 mi East 1.2 mph - N/A   Scattered Clouds
10:00 PM 48 °F - 47 °F 94% 30.15 in - SE 2.3 mph - -  
10:50 PM 48.2 °F - 46.4 °F 93% 30.12 in 6.2 mi WSW 2.3 mph - N/A   Partly Cloudy
11:50 PM 46.4 °F 44.3 °F 46.4 °F 100% 30.15 in 6.2 mi WSW 4.6 mph - N/A   Partly Cloudy